Location: Peebles
(55.6412°N, 3.1714°W)
Time: 13:47:43
(UTC+01:00)

Cosmos 1727 Rocket - Pass Details

Date: 26 September 2021
Orbit: 961 x 996 km, 82.9° (Epoch: 17 October)

Event Time Altitude Azimuth Distance (km) Brightness Sun altitude
Rises 20:53:44 0° 348° (NNW) 3,724 7.5 -16.4°
Reaches altitude 10° 20:56:19 10° 352° (N) 2,768 6.8 -16.8°
Maximum altitude 21:02:37 62° 73° (ENE) 1,104 4.0 -17.6°
Enters shadow 21:06:39 23° 148° (SSE) 1,966 5.1 -18.1°
